SIT-2086

Last updated on Mon Sep 21 2026 00:03:15 GMT+0000 (Coordinated Universal Time)

1 61764U 24199AF 26263.60367078 .00038384 00000+0 47341-3 0 9992 2 61764 97.2749 141.8760 0003013 262.3923 97.6992 15.60090513149270
UTC large
Height (km)
Speed (km/s)
/
Latitude / Longitude
Inclination (degrees)
Orbital Period (minutes)
Azimuth
Elevation
Range (km)
Doppler Factor

Next 0 passes for location: London (51.5072 / 0.1276)

No passes found over London.
SIT-2086